Location: Newark
(45.2500°N, 7.5833°E)
Time: 02:04:34
(UTC+00:00)

A-11 Canister half - Pass Details

Date: 29 January 2020
Orbit: 1524 x 1684 km, 47.3° (Epoch: 25 February)

Event Time Altitude Azimuth Distance (km) Brightness Sun altitude
Rises 14:47:04 0° 208° (SSW) 4,662 13.1 14.2°
Reaches altitude 10° 14:50:21 10° 200° (SSW) 3,680 12.4 13.8°
Maximum altitude 14:58:36 38° 137° (SE) 2,189 10.0 12.7°
Drops below altitude 10° 15:06:58 10° 74° (ENE) 3,739 10.5 11.7°
Sets 15:10:19 0° 67° (ENE) 4,745 11.0 11.2°
